CW9927 Weather Reports


time (UTC)temp
F
wind
direction
speed
knots
gust
knots
rain 1hr
in
rain 24hr
in
rain mn
in
humidity
%
barometer
mb
20240613050145 56 0.0 0.0 0.00 0.00 0.00 86 1014.7
20240613045117 56 0.0 0.0 0.00 0.00 0.00 86 1014.7
20240613044117 56 0.0 0.0 0.00 0.00 0.00 86 1014.6
20240613043116 56 0.0 0.0 0.00 0.00 0.00 86 1014.5
20240613042137 56 0.0 0.0 0.00 0.00 0.00 86 1014.5
20240613041116 56 0.0 0.0 0.00 0.00 0.00 85 1014.5
20240613040117 56 0.0 0.0 0.00 0.00 0.00 85 1014.5
20240613035116 57 0.0 0.0 0.00 0.00 0.00 84 1014.3
20240613034117 57 0.0 0.0 0.00 0.00 0.00 84 1014.2
20240613033116 57 0.0 0.0 0.00 0.00 0.00 83 1014.2
20240613032117 58 0.0 0.0 0.00 0.00 0.00 82 1014.1
20240613031117 58 0.0 0.0 0.00 0.00 0.00 81 1014.2
20240613030116 59 0.0 0.0 0.00 0.00 0.00 80 1014.2
20240613025118 59 0.0 0.0 0.00 0.00 0.00 80 1014.1
20240613024116 60 0.0 0.0 0.00 0.00 0.00 79 1014.1
20240613023137 61 0.0 0.0 0.00 0.00 0.00 78 1014.2
20240613022117 61 0.0 0.0 0.00 0.00 0.00 77 1014.0
20240613021116 61 0.0 0.0 0.00 0.00 0.00 77 1014.0
20240613020116 62 0.0 0.0 0.00 0.00 0.00 77 1014.0
20240613015116 62 248 3.5 7.0 0.00 0.00 0.00 76 1013.8
20240613014116 62 225 1.7 5.2 0.00 0.00 0.00 76 1013.9
20240613013117 63 225 1.7 6.1 0.00 0.00 0.00 75 1013.8
20240613012117 63 225 3.5 7.0 0.00 0.00 0.00 74 1013.8
20240613011117 64 225 2.6 5.2 0.00 0.00 0.00 73 1013.8
20240613005138 64 248 0.9 5.2 0.00 0.00 0.00 73 1013.8
20240613004118 65 225 0.9 2.6 0.00 0.00 0.00 72 1013.8
20240613003158 65 203 0.9 6.1 0.00 0.00 0.00 72 1013.8
20240613002117 65 225 3.5 7.0 0.00 0.00 0.00 72 1013.9
20240613001117 65 248 0.9 3.5 0.00 0.00 0.00 71 1014.0
20240613000117 65 270 1.7 9.6 0.00 0.00 0.00 72 1014.0
20240612235117 65 225 3.5 7.8 0.00 0.00 0.00 72 1014.1
20240612234117 66 0.0 0.0 0.00 0.00 0.00 70 1014.0
20240612233137 66 248 1.7 6.1 0.00 0.00 0.00 70 1014.1
20240612232118 66 248 0.9 4.3 0.00 0.00 0.00 70 1014.2
20240612231157 67 225 6.1 10.4 0.00 0.00 0.00 69 1014.3
20240612230117 67 0.0 0.9 0.00 0.00 0.00 70 1014.3
20240612225116 66 270 5.2 10.4 0.00 0.00 0.00 70 1014.2
20240612224137 67 225 5.2 13.0 0.00 0.00 0.00 70 1014.3
20240612223117 67 270 4.3 8.7 0.00 0.00 0.00 70 1014.4
20240612222117 67 270 5.2 8.7 0.00 0.00 0.00 69 1014.4
20240612221117 67 248 3.5 8.7 0.00 0.00 0.00 70 1014.5
20240612220117 67 0.0 1.7 0.00 0.00 0.00 69 1014.4
20240612215139 67 0.0 0.9 0.00 0.00 0.00 70 1014.5
20240612214138 67 0.0 0.0 0.00 0.00 0.00 69 1014.6
20240612213119 67 0.0 0.0 0.00 0.00 0.00 69 1014.6
20240612212118 66 0.0 0.0 0.00 0.00 0.00 70 1014.6
20240612211117 66 0.0 1.7 0.00 0.00 0.00 71 1014.7
20240612210117 66 270 2.6 6.1 0.00 0.00 0.00 71 1014.9
20240612205117 66 0.0 0.0 0.00 0.00 0.00 70 1014.9
20240612204138 65 0.0 0.0 0.00 0.00 0.00 72 1015.0
20240612203117 65 0.0 0.0 0.00 0.00 0.00 71 1015.1
20240612202118 64 0.0 0.0 0.00 0.00 0.00 73 1015.1
20240612201118 64 0.0 0.0 0.00 0.00 0.00 73 1015.2
20240612200117 64 0.0 0.0 0.00 0.00 0.00 73 1015.4
20240612195117 64 0.0 0.9 0.00 0.00 0.00 73 1015.5
20240612194117 64 0.0 0.0 0.00 0.00 0.00 73 1015.5
20240612193115 64 0.0 0.0 0.00 0.00 0.00 74 1015.4
20240612192138 63 0.0 0.0 0.00 0.00 0.00 75 1015.5
20240612191118 63 0.0 2.6 0.00 0.00 0.00 76 1015.6
20240612185117 62 0.0 0.0 0.00 0.00 0.00 76 1015.5
20240612184118 62 0.0 0.0 0.00 0.00 0.00 76 1015.4
20240612183117 62 0.0 0.0 0.00 0.00 0.00 76 1015.4
20240612182117 61 0.0 0.0 0.00 0.00 0.00 77 1015.4
20240612181117 61 0.0 0.0 0.00 0.00 0.00 78 1015.4
20240612180117 60 0.0 0.0 0.00 0.00 0.00 78 1015.3
20240612175117 60 0.0 0.0 0.00 0.00 0.00 79 1015.3
20240612174117 60 0.0 0.0 0.00 0.00 0.00 79 1015.2
20240612173137 60 0.0 0.0 0.00 0.00 0.00 79 1015.1
20240612172118 59 0.0 0.0 0.00 0.00 0.00 80 1015.1
20240612171117 59 0.0 0.0 0.00 0.00 0.00 81 1015.0
20240612170117 58 0.0 0.0 0.00 0.00 0.00 82 1015.0
20240612165117 58 0.0 0.0 0.00 0.00 0.00 82 1015.0
20240612164117 58 0.0 0.0 0.00 0.00 0.00 83 1014.8
20240612163158 57 0.0 0.0 0.00 0.00 0.00 84 1014.9
20240612162117 57 0.0 0.0 0.00 0.00 0.00 85 1014.9
20240612161117 56 0.0 0.0 0.00 0.00 0.00 85 1014.9
20240612160117 56 0.0 0.0 0.00 0.00 0.00 86 1014.8
20240612155117 56 0.0 0.0 0.00 0.00 0.00 86 1014.8
20240612154117 55 0.0 0.0 0.00 0.00 0.00 87 1014.8
20240612153117 55 0.0 0.0 0.00 0.00 0.00 88 1014.7
20240612152137 55 0.0 0.0 0.00 0.00 0.00 89 1014.6
20240612151137 55 0.0 0.0 0.00 0.00 0.00 89 1014.5
20240612150115 55 0.0 0.0 0.00 0.00 0.00 90 1014.3
20240612145138 54 0.0 0.0 0.00 0.00 0.00 90 1014.2
20240612144137 54 0.0 0.0 0.00 0.00 0.00 90 1014.2
20240612143118 54 0.0 0.0 0.00 0.00 0.00 90 1014.1
20240612142140 54 0.0 0.0 0.00 0.00 0.00 90 1013.9
20240612141117 54 0.0 0.0 0.00 0.00 0.00 90 1013.8
20240612140117 54 0.0 0.0 0.00 0.00 0.00 90 1013.8
20240612135117 54 0.0 0.0 0.00 0.00 0.00 90 1013.7
20240612134158 53 0.0 0.0 0.00 0.00 0.00 90 1013.6
20240612133117 53 0.0 0.0 0.00 0.00 0.00 90 1013.5
20240612132117 53 0.0 0.0 0.00 0.00 0.00 89 1013.2
20240612131117 53 0.0 0.0 0.00 0.00 0.00 89 1013.1
20240612130218 53 0.0 0.0 0.00 0.00 0.00 89 1012.9
20240612125116 53 0.0 0.0 0.00 0.00 0.00 89 1012.7
20240612124116 53 0.0 0.0 0.00 0.00 0.00 89 1012.6
20240612123116 53 0.0 0.0 0.00 0.00 0.00 89 1012.5
20240612122116 54 0.0 0.0 0.00 0.00 0.00 88 1012.3
20240612121116 54 0.0 0.0 0.00 0.00 0.00 88 1012.2
20240612120116 54 0.0 0.0 0.00 0.00 0.00 88 1012.1
20240612115116 54 0.0 0.0 0.00 0.00 0.00 87 1012.0
20240612114116 54 0.0 0.0 0.00 0.00 0.00 87 1012.0
20240612113116 54 0.0 0.0 0.00 0.00 0.00 87 1012.0
20240612112116 54 0.0 0.0 0.00 0.00 0.00 86 1011.9
20240612111116 54 0.0 0.0 0.00 0.00 0.00 86 1011.8
20240612110134 55 0.0 0.0 0.00 0.00 0.00 85 1011.8
20240612105116 55 0.0 0.0 0.00 0.00 0.00 85 1011.7
20240612104116 55 0.0 0.0 0.00 0.00 0.00 84 1011.6
20240612103116 56 0.0 0.0 0.00 0.00 0.00 83 1011.5
20240612102116 56 0.0 0.0 0.00 0.00 0.00 82 1011.4
20240612101116 56 0.0 0.0 0.00 0.00 0.00 81 1011.4
20240612100116 56 0.0 0.0 0.00 0.00 0.00 80 1011.4
20240612095136 56 0.0 0.0 0.00 0.00 0.00 80 1011.4
20240612094116 57 0.0 0.0 0.00 0.00 0.00 81 1011.3
20240612093116 57 0.0 0.0 0.00 0.00 0.00 80 1011.4
20240612092116 57 0.0 0.0 0.00 0.00 0.00 80 1011.3
20240612091116 57 0.0 0.0 0.00 0.00 0.00 80 1011.2
20240612090156 58 0.0 0.0 0.00 0.00 0.00 80 1011.2
20240612085116 58 0.0 0.0 0.00 0.00 0.00 79 1011.2
20240612084116 58 0.0 0.0 0.00 0.00 0.00 79 1011.3
20240612083116 58 0.0 0.0 0.00 0.00 0.00 79 1011.2
20240612082116 58 0.0 0.0 0.00 0.00 0.00 79 1011.1
20240612081116 59 0.0 0.0 0.00 0.00 0.00 79 1011.1
20240612080116 59 0.0 0.0 0.00 0.00 0.00 78 1011.1
20240612075116 59 0.0 0.0 0.00 0.00 0.00 77 1011.2
20240612074116 59 0.0 0.0 0.00 0.00 0.00 74 1011.1
20240612073116 60 0.0 0.0 0.00 0.00 0.00 73 1011.1
20240612072116 60 0.0 0.0 0.00 0.00 0.00 73 1011.1
20240612071116 61 0.0 0.0 0.00 0.00 0.00 73 1011.1
20240612065316 61 0.0 0.0 0.00 0.00 0.00 73 1011.0
20240612064456 62 0.0 0.0 0.00 0.00 0.00 74 1011.0
20240612063315 62 0.0 0.0 0.00 0.00 0.00 74 1011.1
20240612062316 62 0.0 0.0 0.00 0.00 0.00 74 1011.1
20240612061316 62 0.0 0.0 0.00 0.00 0.00 74 1011.1
20240612060315 62 0.0 0.0 0.00 0.00 0.00 74 1011.2
20240612055316 62 0.0 0.0 0.00 0.00 0.00 74 1011.2
20240612054316 62 0.0 0.0 0.00 0.00 0.00 75 1011.2
20240612053315 62 0.0 0.0 0.00 0.00 0.00 76 1011.2
20240612052316 62 0.0 0.0 0.00 0.00 0.00 76 1011.1
20240612051336 62 0.0 0.0 0.00 0.00 0.00 75 1011.1